Washington, IA

12:50 PM CST on January 21, 2017 (GMT -0600)
Washington

Weather History for KAWG - November, 2012

Change the Weather History Date:

Sunday, November 18, 2012

  Actual Average Record
Temperature  
Mean Temperature 46 °F -  
Max Temperature 59 °F 47 °F 75 °F (1999)
Min Temperature 32 °F 29 °F 8 °F (2014)
Degree Days  
Heating Degree Days 20    
Moisture  
Dew Point 31 °F    
Average Humidity 60    
Maximum Humidity 87    
Minimum Humidity 31    
Precipitation  
Precipitation 0.00 in - - ()
Sea Level Pressure  
Sea Level Pressure 30.29 in    
Wind  
Wind Speed 9 mph (SSE)    
Max Wind Speed 14 mph    
Max Gust Speed 17 mph    
Visibility 9 miles    
Events      
Averages and records for this station are not official NWS values.
T = Trace of Precipitation, MM = Missing Value Source: NWS Daily Summary

Daily Weather History Graph

Daily Weather History Graph

Search for Another Location

Airport or City:

Trip Planner

Search our weather history database for the weather conditions in past years. The results will help you decide how hot, cold, wet, or windy it might be!

Date:

Astronomy

Nov. 18, 2012 Rise Set
Actual Time 6:59 AM CST 4:44 PM CST
Civil Twilight 6:29 AM CST 5:14 PM CST
Nautical Twilight 5:55 AM CST 5:48 PM CST
Astronomical Twilight 5:22 AM CST 6:20 PM CST
Moon 11:25 AM CST (11/18) 10:05 PM CST (11/18)
Length of Visible Light 10h 45m
Length of Day
9h 45m
Waxing Crescent, 30% of the Moon is Illuminated
Nov 18
Waxing Crescent
Nov 20
First Quarter
Nov 28
Full
Dec 6
Last Quarter
Dec 13
New

Hourly Weather History & Observations

Time (CST) Temp. Windchill Dew Point Humidity Pressure Visibility Wind Dir Wind Speed Gust Speed Precip Events Conditions
12:15 AM 37.4 °F 31.4 °F 30.2 °F 75% 30.36 in 7.0 mi SSE 8.1 mph - N/A   Clear
12:35 AM 35.6 °F 28.6 °F 30.2 °F 81% 30.36 in 7.0 mi SSE 9.2 mph - N/A   Clear
1:15 AM 35.6 °F 28.6 °F 30.2 °F 81% 30.35 in 7.0 mi SSE 9.2 mph - N/A   Clear
1:55 AM 33.8 °F 27.7 °F 30.2 °F 87% 30.35 in 5.0 mi SE 6.9 mph - N/A   Clear
2:15 AM 33.8 °F 27.0 °F 30.2 °F 87% 30.35 in 5.0 mi SE 8.1 mph - N/A   Clear
2:35 AM 33.8 °F 27.0 °F 30.2 °F 87% 30.35 in 5.0 mi SSE 8.1 mph - N/A   Clear
2:55 AM 33.8 °F 27.0 °F 30.2 °F 87% 30.35 in 5.0 mi SSE 8.1 mph - N/A   Clear
3:15 AM 33.8 °F 27.0 °F 30.2 °F 87% 30.35 in 5.0 mi SSE 8.1 mph - N/A   Clear
3:35 AM 33.8 °F 27.7 °F 30.2 °F 87% 30.34 in 5.0 mi SE 6.9 mph - N/A   Clear
3:55 AM 33.8 °F 27.7 °F 30.2 °F 87% 30.33 in 7.0 mi SE 6.9 mph - N/A   Clear
4:15 AM 33.8 °F 28.6 °F 30.2 °F 87% 30.33 in 5.0 mi SSE 5.8 mph - N/A   Clear
4:35 AM 33.8 °F 27.7 °F 30.2 °F 87% 30.33 in 7.0 mi SSE 6.9 mph - N/A   Clear
4:55 AM 32.0 °F 24.8 °F 28.4 °F 87% 30.33 in 5.0 mi SSE 8.1 mph - N/A   Clear
5:15 AM 33.8 °F 25.8 °F 30.2 °F 87% 30.33 in 7.0 mi SSE 10.4 mph - N/A   Clear
5:35 AM 33.8 °F 26.4 °F 30.2 °F 87% 30.33 in 7.0 mi SSE 9.2 mph - N/A   Clear
5:55 AM 33.8 °F 27.0 °F 30.2 °F 87% 30.32 in 7.0 mi SSE 8.1 mph - N/A   Clear
6:15 AM 33.8 °F 26.4 °F 30.2 °F 87% 30.32 in 7.0 mi South 9.2 mph - N/A   Clear
6:35 AM 33.8 °F 26.4 °F 28.4 °F 81% 30.32 in 7.0 mi SSE 9.2 mph - N/A   Clear
6:55 AM 33.8 °F 27.0 °F 30.2 °F 87% 30.32 in 7.0 mi SSE 8.1 mph - N/A   Clear
7:15 AM 33.8 °F 27.0 °F 30.2 °F 87% 30.32 in 7.0 mi SSE 8.1 mph - N/A   Clear
7:35 AM 33.8 °F 27.7 °F 30.2 °F 87% 30.32 in 7.0 mi SSE 6.9 mph - N/A   Clear
7:55 AM 35.6 °F 29.2 °F 32.0 °F 87% 30.32 in 7.0 mi SSE 8.1 mph - N/A   Clear
8:15 AM 37.4 °F 31.4 °F 32.0 °F 81% 30.32 in 7.0 mi SSE 8.1 mph - N/A   Clear
8:35 AM 39.2 °F 33.6 °F 33.8 °F 81% 30.32 in 10.0 mi SSE 8.1 mph - N/A   Clear
8:55 AM 42.8 °F 38.0 °F 33.8 °F 70% 30.32 in 10.0 mi SSE 8.1 mph - N/A   Clear
9:15 AM 46.4 °F 41.5 °F 33.8 °F 62% 30.32 in 10.0 mi South 10.4 mph - N/A   Clear
9:35 AM 48.2 °F - 32.0 °F 54% 30.31 in 10.0 mi South 13.8 mph - N/A   Clear
9:55 AM 50.0 °F - 30.2 °F 47% 30.31 in 10.0 mi South 11.5 mph - N/A   Clear
10:15 AM 50.0 °F - 30.2 °F 47% 30.32 in 10.0 mi South 10.4 mph - N/A   Clear
10:35 AM 51.8 °F - 30.2 °F 44% 30.31 in 10.0 mi South 10.4 mph - N/A   Clear
10:55 AM 53.6 °F - 30.2 °F 41% 30.31 in 10.0 mi South 13.8 mph - N/A   Clear
11:15 AM 55.4 °F - 30.2 °F 38% 30.30 in 10.0 mi South 11.5 mph - N/A   Clear
11:35 AM 55.4 °F - 30.2 °F 38% 30.29 in 10.0 mi South 10.4 mph - N/A   Clear
11:55 AM 57.2 °F - 30.2 °F 36% 30.29 in 10.0 mi South 9.2 mph - N/A   Clear
12:15 PM 57.2 °F - 30.2 °F 36% 30.28 in 10.0 mi South 12.7 mph - N/A   Clear
12:35 PM 57.2 °F - 28.4 °F 33% 30.27 in 10.0 mi South 11.5 mph - N/A   Clear
12:55 PM 57.2 °F - 30.2 °F 36% 30.27 in 10.0 mi South 11.5 mph - N/A   Clear
1:15 PM 57.2 °F - 28.4 °F 33% 30.26 in 10.0 mi South 12.7 mph 17.3 mph N/A   Clear
1:35 PM 59.0 °F - 28.4 °F 31% 30.26 in 10.0 mi South 10.4 mph - N/A   Clear
1:55 PM 59.0 °F - 30.2 °F 34% 30.25 in 10.0 mi South 11.5 mph - N/A   Clear
2:15 PM 59.0 °F - 30.2 °F 34% 30.25 in 10.0 mi SSE 13.8 mph - N/A   Clear
2:35 PM 57.2 °F - 30.2 °F 36% 30.24 in 10.0 mi SSE 12.7 mph 16.1 mph N/A   Clear
2:55 PM 57.2 °F - 30.2 °F 36% 30.24 in 10.0 mi SSE 10.4 mph - N/A   Clear
3:15 PM 57.2 °F - 30.2 °F 36% 30.25 in 10.0 mi SSE 10.4 mph - N/A   Clear
3:35 PM 55.4 °F - 30.2 °F 38% 30.24 in 10.0 mi SSE 10.4 mph - N/A   Clear
3:55 PM 55.4 °F - 30.2 °F 38% 30.25 in 10.0 mi SSE 8.1 mph - N/A   Clear
4:15 PM 53.6 °F - 32.0 °F 44% 30.25 in 10.0 mi SE 8.1 mph - N/A   Clear
4:35 PM 51.8 °F - 30.2 °F 44% 30.25 in 10.0 mi SE 8.1 mph - N/A   Clear
4:55 PM 50.0 °F - 30.2 °F 47% 30.24 in 10.0 mi SSE 9.2 mph - N/A   Clear
5:15 PM 50.0 °F - 30.2 °F 47% 30.25 in 10.0 mi SE 6.9 mph - N/A   Clear
5:35 PM 48.2 °F - 30.2 °F 50% 30.25 in 10.0 mi SE 8.1 mph - N/A   Clear
5:55 PM 50.0 °F - 30.2 °F 47% 30.25 in 10.0 mi SE 10.4 mph - N/A   Clear
6:15 PM 51.8 °F - 30.2 °F 44% 30.25 in 10.0 mi SE 11.5 mph - N/A   Clear
6:35 PM 50.0 °F - 30.2 °F 47% 30.25 in 10.0 mi SSE 11.5 mph - N/A   Clear
6:55 PM 50.0 °F - 30.2 °F 47% 30.25 in 10.0 mi SSE 10.4 mph - N/A   Clear
7:15 PM 50.0 °F - 30.2 °F 47% 30.25 in 10.0 mi SSE 11.5 mph - N/A   Clear
7:35 PM 50.0 °F - 30.2 °F 47% 30.24 in 10.0 mi SSE 12.7 mph - N/A   Clear
7:55 PM 50.0 °F - 32.0 °F 50% 30.24 in 10.0 mi SSE 13.8 mph - N/A   Clear
8:15 PM 48.2 °F - 32.0 °F 54% 30.24 in 10.0 mi SSE 12.7 mph - N/A   Clear
8:35 PM 48.2 °F - 32.0 °F 54% 30.24 in 10.0 mi SSE 11.5 mph - N/A   Clear
8:55 PM 48.2 °F - 32.0 °F 54% 30.24 in 10.0 mi SSE 11.5 mph - N/A   Clear
9:15 PM 48.2 °F - 33.8 °F 58% 30.25 in 10.0 mi SSE 10.4 mph - N/A   Clear
9:35 PM 48.2 °F - 33.8 °F 58% 30.24 in 10.0 mi SSE 10.4 mph - N/A   Clear
9:55 PM 46.4 °F 41.9 °F 33.8 °F 62% 30.24 in 10.0 mi SSE 9.2 mph - N/A   Clear
10:35 PM 46.4 °F 42.4 °F 33.8 °F 62% 30.24 in 10.0 mi SSE 8.1 mph - N/A   Clear
11:15 PM 46.4 °F 41.9 °F 33.8 °F 62% 30.23 in 10.0 mi SSE 9.2 mph - N/A   Clear
11:35 PM 44.6 °F 40.2 °F 32.0 °F 61% 30.23 in 10.0 mi SSE 8.1 mph - N/A   Clear
11:55 PM 44.6 °F 39.7 °F 33.8 °F 66% 30.22 in 10.0 mi SSE 9.2 mph - N/A   Clear